• In Deutschland
  • Länderverzeichnis
  • Für 7 Tage
  • Wassertemperatur
  • Satellitenkarten
  • Wetterkarte
  • Widgets
  • user-avatar
    Anmelden

    Stündliche Wetter Artaschat

    Heute, 11 Dezember, Montag

    Zeit Temperatur Niederschläge Wind Luftdruck Luftfeuchtigkeit
    00:00 -7°C° 0 mm 2 m/S 601 mmHg 53%
    01:00 -7°C° 0 mm 2 m/S 601 mmHg 54%
    02:00 -7°C° 0 mm 2 m/S 601 mmHg 54%
    03:00 -8°C° 0 mm 2 m/S 601 mmHg 57%
    04:00 -8°C° 0 mm 2 m/S 601 mmHg 56%
    05:00 -8°C° 0 mm 2 m/S 601 mmHg 56%
    06:00 -8°C° 0 mm 2 m/S 601 mmHg 56%
    07:00 -7°C° 0 mm 2 m/S 601 mmHg 54%
    08:00 -6°C° 0 mm 2 m/S 602 mmHg 52%
    09:00 -5°C° 0 mm 2 m/S 602 mmHg 51%
    10:00 -4°C° 0 mm 2 m/S 603 mmHg 49%
    11:00 0°C° 0 mm 1 m/S 603 mmHg 48%
    12:00 +1°C° 0 mm 1 m/S 603 mmHg 46%
    13:00 +1°C° 0 mm 1 m/S 603 mmHg 47%
    14:00 +1°C° 0 mm 1 m/S 603 mmHg 48%
    15:00 -2°C° 0 mm 2 m/S 603 mmHg 49%
    16:00 -3°C° 0 mm 2 m/S 603 mmHg 51%
    17:00 -4°C° 0 mm 2 m/S 603 mmHg 53%
    18:00 -5°C° 0 mm 2 m/S 603 mmHg 55%
    19:00 -5°C° 0 mm 2 m/S 604 mmHg 54%
    20:00 -6°C° 0 mm 2 m/S 604 mmHg 54%
    21:00 -6°C° 0 mm 2 m/S 604 mmHg 53%
    22:00 -6°C° 0 mm 2 m/S 604 mmHg 53%
    23:00 -6°C° 0 mm 2 m/S 604 mmHg 52%

    Morgen, 12 Dezember, Dienstag

    Zeit Temperatur Niederschläge Wind Luftdruck Luftfeuchtigkeit
    00:00 -4°C° 0 mm 1 m/S 604 mmHg 52%
    01:00 -4°C° 0 mm 1 m/S 604 mmHg 51%
    02:00 -4°C° 0 mm 1 m/S 604 mmHg 50%
    03:00 -4°C° 0 mm 1 m/S 604 mmHg 50%
    04:00 -4°C° 0 mm 1 m/S 604 mmHg 49%
    05:00 -4°C° 0 mm 1 m/S 604 mmHg 49%
    06:00 -4°C° 0 mm 1 m/S 604 mmHg 48%
    07:00 -3°C° 0 mm 1 m/S 605 mmHg 46%
    08:00 -2°C° 0 mm 1 m/S 605 mmHg 45%
    09:00 -1°C° 0 mm 1 m/S 605 mmHg 43%
    10:00 +1°C° 0 mm 1 m/S 605 mmHg 42%
    11:00 +2°C° 0 mm 1 m/S 605 mmHg 41%
    12:00 +3°C° 0 mm 1 m/S 605 mmHg 41%
    13:00 +3°C° 0 mm 1 m/S 605 mmHg 42%
    14:00 +3°C° 0 mm 1 m/S 605 mmHg 42%
    15:00 +3°C° 0 mm 1 m/S 605 mmHg 43%
    16:00 +2°C° 0 mm 1 m/S 605 mmHg 45%
    17:00 0°C° 0 mm 1 m/S 604 mmHg 47%
    18:00 -1°C° 0 mm 1 m/S 604 mmHg 49%
    19:00 -1°C° 0 mm 1 m/S 604 mmHg 49%
    20:00 -2°C° 0 mm 1 m/S 603 mmHg 48%
    21:00 -2°C° 0 mm 1 m/S 603 mmHg 47%
    22:00 -2°C° 0 mm 1 m/S 603 mmHg 47%
    23:00 -2°C° 0 mm 1 m/S 603 mmHg 47%

    übermorgen, 13 Dezember, Mittwoch

    Zeit Temperatur Niederschläge Wind Luftdruck Luftfeuchtigkeit
    00:00 -2°C° 0 mm 1 m/S 603 mmHg 47%
    01:00 -3°C° 0 mm 1 m/S 603 mmHg 47%
    02:00 -3°C° 0 mm 1 m/S 603 mmHg 47%
    03:00 -3°C° 0 mm 1 m/S 603 mmHg 47%
    04:00 -3°C° 0 mm 1 m/S 602 mmHg 47%
    05:00 -3°C° 0 mm 1 m/S 602 mmHg 48%
    06:00 -3°C° 0 mm 1 m/S 602 mmHg 48%
    07:00 -2°C° 0 mm 1 m/S 602 mmHg 46%
    08:00 -1°C° 0 mm 1 m/S 603 mmHg 43%
    09:00 0°C° 0 mm 1 m/S 604 mmHg 40%
    10:00 +1°C° 0 mm 1 m/S 604 mmHg 39%
    11:00 +3°C° 0 mm 1 m/S 604 mmHg 39%
    12:00 +4°C° 0 mm 1 m/S 604 mmHg 38%
    13:00 +4°C° 0 mm 1 m/S 603 mmHg 39%
    14:00 +4°C° 0 mm 1 m/S 603 mmHg 40%
    15:00 +4°C° 0 mm 1 m/S 602 mmHg 41%
    16:00 +2°C° 0 mm 1 m/S 602 mmHg 44%
    17:00 0°C° 0 mm 1 m/S 601 mmHg 47%
    18:00 -2°C° 0 mm 1 m/S 600 mmHg 50%
    19:00 -2°C° 0 mm 1 m/S 600 mmHg 49%
    20:00 -2°C° 0 mm 1 m/S 600 mmHg 49%
    21:00 -2°C° 0 mm 1 m/S 600 mmHg 49%
    22:00 -2°C° 0 mm 1 m/S 600 mmHg 49%
    23:00 -3°C° 0 mm 1 m/S 600 mmHg 49%

    14 Dezember, Donnerstag

    Zeit Temperatur Niederschläge Wind Luftdruck Luftfeuchtigkeit
    00:00 -3°C° 0 mm 1 m/S 600 mmHg 49%
    01:00 -3°C° 0 mm 1 m/S 600 mmHg 49%
    02:00 -3°C° 0 mm 1 m/S 600 mmHg 49%
    03:00 -3°C° 0 mm 1 m/S 599 mmHg 50%
    04:00 -4°C° 0 mm 1 m/S 599 mmHg 51%
    05:00 -4°C° 0 mm 1 m/S 599 mmHg 53%
    06:00 -4°C° 0 mm 1 m/S 599 mmHg 54%
    07:00 -4°C° 0 mm 0 m/S 600 mmHg 50%
    08:00 -3°C° 0 mm 0 m/S 601 mmHg 46%
    09:00 -1°C° 0 mm 0 m/S 601 mmHg 42%
    10:00 0°C° 0 mm 0 m/S 601 mmHg 41%
    11:00 +2°C° 0 mm 1 m/S 601 mmHg 39%
    12:00 +3°C° 0 mm 1 m/S 601 mmHg 37%
    13:00 +3°C° 0 mm 1 m/S 601 mmHg 38%
    14:00 +3°C° 0 mm 1 m/S 601 mmHg 39%
    15:00 +3°C° 0 mm 1 m/S 600 mmHg 41%
    16:00 +1°C° 0 mm 1 m/S 600 mmHg 43%
    17:00 0°C° 0 mm 1 m/S 599 mmHg 46%
    18:00 -2°C° 0 mm 1 m/S 599 mmHg 49%
    19:00 -2°C° 0 mm 1 m/S 599 mmHg 48%
    20:00 -2°C° 0 mm 1 m/S 599 mmHg 47%
    21:00 -2°C° 0 mm 1 m/S 599 mmHg 46%
    22:00 -2°C° 0 mm 1 m/S 599 mmHg 45%
    23:00 -3°C° 0 mm 1 m/S 599 mmHg 44%

    15 Dezember, Freitag

    Zeit Temperatur Niederschläge Wind Luftdruck Luftfeuchtigkeit
    00:00 -3°C° 0 mm 1 m/S 599 mmHg 44%
    01:00 -3°C° 0 mm 1 m/S 599 mmHg 44%
    02:00 -3°C° 0 mm 1 m/S 598 mmHg 44%
    03:00 -4°C° 0 mm 1 m/S 598 mmHg 44%
    04:00 -4°C° 0 mm 1 m/S 598 mmHg 44%
    05:00 -4°C° 0 mm 1 m/S 598 mmHg 44%
    06:00 -4°C° 0 mm 1 m/S 598 mmHg 45%
    07:00 -3°C° 0 mm 1 m/S 599 mmHg 43%
    08:00 -2°C° 0 mm 1 m/S 599 mmHg 41%
    09:00 -1°C° 0 mm 1 m/S 600 mmHg 39%
    10:00 +1°C° 0 mm 1 m/S 600 mmHg 38%
    11:00 +2°C° 0 mm 1 m/S 600 mmHg 36%
    12:00 +3°C° 0 mm 1 m/S 600 mmHg 35%
    13:00 +3°C° 0 mm 1 m/S 600 mmHg 36%
    14:00 +3°C° 0 mm 1 m/S 600 mmHg 37%
    15:00 +3°C° 0 mm 1 m/S 600 mmHg 38%
    16:00 +1°C° 0 mm 1 m/S 600 mmHg 41%
    17:00 0°C° 0 mm 1 m/S 600 mmHg 44%
    18:00 -2°C° 0 mm 1 m/S 599 mmHg 47%
    19:00 -2°C° 0 mm 1 m/S 600 mmHg 47%
    20:00 -2°C° 0 mm 1 m/S 600 mmHg 47%
    21:00 -3°C° 0 mm 1 m/S 600 mmHg 47%
    22:00 -3°C° 0 mm 1 m/S 600 mmHg 47%
    23:00 -3°C° 0 mm 1 m/S 600 mmHg 47%

    16 Dezember, Samstag

    Zeit Temperatur Niederschläge Wind Luftdruck Luftfeuchtigkeit
    00:00 -3°C° 0 mm 1 m/S 600 mmHg 46%
    01:00 -4°C° 0 mm 1 m/S 600 mmHg 46%
    02:00 -4°C° 0 mm 1 m/S 600 mmHg 46%
    03:00 -4°C° 0 mm 1 m/S 600 mmHg 46%
    04:00 -4°C° 0 mm 1 m/S 600 mmHg 47%
    05:00 -4°C° 0 mm 1 m/S 600 mmHg 47%
    06:00 -6°C° 0 mm 1 m/S 600 mmHg 48%
    07:00 -3°C° 0 mm 1 m/S 601 mmHg 45%
    08:00 -2°C° 0 mm 1 m/S 602 mmHg 42%
    09:00 -2°C° 0 mm 0 m/S 603 mmHg 39%
    10:00 -1°C° 0 mm 0 m/S 603 mmHg 37%
    11:00 0°C° 0 mm 0 m/S 603 mmHg 35%
    12:00 +1°C° 0 mm 0 m/S 603 mmHg 33%
    13:00 +2°C° 0 mm 1 m/S 603 mmHg 34%
    14:00 +2°C° 0 mm 1 m/S 603 mmHg 35%
    15:00 +2°C° 0 mm 1 m/S 603 mmHg 36%
    16:00 +1°C° 0 mm 1 m/S 602 mmHg 39%
    17:00 -1°C° 0 mm 1 m/S 602 mmHg 42%
    18:00 -2°C° 0 mm 1 m/S 602 mmHg 45%
    19:00 -2°C° 0 mm 1 m/S 602 mmHg 45%
    20:00 -3°C° 0 mm 1 m/S 602 mmHg 45%
    21:00 -3°C° 0 mm 1 m/S 602 mmHg 44%
    22:00 -3°C° 0 mm 1 m/S 602 mmHg 44%
    23:00 -3°C° 0 mm 1 m/S 602 mmHg 44%
    Mehr zeigen